STARLINK-2725 (48681 NORAD) Tracking and Keplerian Element Data

This shows tracking and keplerian element data for the satellite.

Feedback or suggestion? Click here.




ElementValue
Catalog48681
NameSTARLINK-2725
Epoch Orbit1170
Epoch Day215.25002315
Epoch Year2021
RAAN84.3482
Inclination53.0469
Eccentricity0.0002101
Argument of Perigee30.13
Mean Anonmoly139.2978
Mean Motion15.73221234
Decay Rate-6.752E-05
L11 48681U 21044AV 21215.25002315 -.00006752 00000-0 -43658-4 0 9999
L22 48681 53.0469 84.3482 0002101 30.1300 139.2978 15.73221234 11704

Live tracking and technical data element details for STARLINK-2725 (NORAD 48681). STARLINK-2725 can be tracked NOW for your location showing map with azimuth and elevation plus other details from your city location.

Track the satellite on the map from your city or location and see movement details for azimuth, elevation, latitude, longitude, range, height, and movement on the map or in text.







IsCatalogInMostPopularTable: catalog: 48681, numindb: 13
Update: records affected: 1



GetName: 48681 STARLINK-2725

Hit Count: updated at: Tue, 03 Aug 2021 19:40:01 GMT